Time,TemperatureF,DewpointF,PressureIn,WindDirection,WindDirectionDegrees,WindSpeedMPH,WindSpeedGustMPH,Humidity,HourlyPrecipIn,Conditions,Clouds,dailyrainin,SoftwareType,DateUTC
2013-05-15 00:01:00,57.0,51.0,29.98,West,265,0.0,-999.0,81,-99.99,,,-99.99,,2013-05-15 07:01:00,
2013-05-15 02:53:00,54.0,49.0,29.99,NW,311,0.0,-999.0,84,-99.99,,,-99.99,,2013-05-15 09:53:00,
2013-05-15 03:02:00,54.0,49.0,29.99,NW,311,0.0,-999.0,84,-99.99,,,-99.99,,2013-05-15 10:02:00,
2013-05-15 03:03:00,54.0,49.0,29.99,NW,311,1.0,-999.0,84,-99.99,,,-99.99,,2013-05-15 10:03:00,
2013-05-15 03:12:00,54.0,49.0,29.99,NW,311,0.0,-999.0,84,-99.99,,,-99.99,,2013-05-15 10:12:00,
2013-05-15 03:22:00,54.0,49.0,29.99,NW,311,1.0,-999.0,84,-99.99,,,-99.99,,2013-05-15 10:22:00,
2013-05-15 03:32:00,54.0,49.0,29.99,NW,311,1.0,-999.0,84,-99.99,,,-99.99,,2013-05-15 10:32:00,
2013-05-15 03:42:00,54.0,49.0,29.99,NW,311,1.0,-999.0,84,-99.99,,,-99.99,,2013-05-15 10:42:00,
2013-05-15 03:52:00,54.0,49.0,29.99,NW,311,1.0,-999.0,84,-99.99,,,-99.99,,2013-05-15 10:52:00,
2013-05-15 04:33:00,53.0,49.0,30.00,NW,311,0.0,-999.0,85,-99.99,,,-99.99,,2013-05-15 11:33:00,
2013-05-15 05:06:00,53.0,49.0,30.00,NW,311,0.0,-999.0,85,-99.99,,,-99.99,,2013-05-15 12:06:00,
2013-05-15 05:12:00,53.0,49.0,30.00,NW,311,0.0,-999.0,85,-99.99,,,-99.99,,2013-05-15 12:12:00,
2013-05-15 05:22:00,53.0,49.0,30.00,NW,311,0.0,-999.0,85,-99.99,,,-99.99,,2013-05-15 12:22:00,
2013-05-15 05:56:00,52.0,48.0,30.00,NW,311,1.0,-999.0,85,-99.99,,,-99.99,,2013-05-15 12:56:00,
2013-05-15 06:05:00,52.0,48.0,30.00,NW,311,1.0,-999.0,85,-99.99,,,-99.99,,2013-05-15 13:05:00,
2013-05-15 06:14:00,52.0,48.0,30.00,NW,311,1.0,-999.0,85,-99.99,,,-99.99,,2013-05-15 13:14:00,
2013-05-15 06:22:00,52.0,48.0,30.00,NW,311,1.0,-999.0,86,-99.99,,,-99.99,,2013-05-15 13:22:00,
2013-05-15 06:32:00,52.0,48.0,30.00,NW,311,1.0,-999.0,86,-99.99,,,-99.99,,2013-05-15 13:32:00,
2013-05-15 06:57:00,53.0,49.0,30.01,NW,312,2.0,-999.0,86,-99.99,,,-99.99,,2013-05-15 13:57:00,
2013-05-15 07:02:00,53.0,49.0,30.01,NW,312,2.0,-999.0,86,-99.99,,,-99.99,,2013-05-15 14:02:00,
2013-05-15 07:12:00,53.0,49.0,30.01,NW,312,2.0,-999.0,86,-99.99,,,-99.99,,2013-05-15 14:12:00,
2013-05-15 08:59:00,62.0,55.0,30.04,SSW,194,2.0,-999.0,77,-99.99,,,-99.99,,2013-05-15 15:59:00,
2013-05-15 09:02:00,63.0,54.0,30.05,West,271,3.0,-999.0,73,-99.99,,,-99.99,,2013-05-15 16:02:00,
2013-05-15 09:23:00,63.0,54.0,30.05,West,271,3.0,-999.0,73,-99.99,,,-99.99,,2013-05-15 16:23:00,
2013-05-15 09:33:00,63.0,54.0,30.05,West,271,3.0,-999.0,73,-99.99,,,-99.99,,2013-05-15 16:33:00,
2013-05-15 09:49:00,63.0,54.0,30.05,West,271,3.0,-999.0,73,-99.99,,,-99.99,,2013-05-15 16:49:00,
2013-05-15 12:31:00,68.0,54.0,30.05,SW,229,8.0,-999.0,62,-99.99,,,-99.99,,2013-05-15 19:31:00,
2013-05-15 12:39:00,68.0,54.0,30.05,SW,229,8.0,-999.0,62,-99.99,,,-99.99,,2013-05-15 19:39:00,
2013-05-15 12:47:00,68.0,54.0,30.05,SW,229,8.0,-999.0,62,-99.99,,,-99.99,,2013-05-15 19:47:00,
2013-05-15 12:55:00,69.0,55.0,30.04,WSW,240,8.0,-999.0,61,-99.99,,,-99.99,,2013-05-15 19:55:00,
2013-05-15 13:02:00,69.0,55.0,30.04,WSW,240,8.0,-999.0,61,-99.99,,,-99.99,,2013-05-15 20:02:00,
2013-05-15 13:22:00,68.0,55.0,30.03,SSW,208,9.0,-999.0,64,-99.99,,,-99.99,,2013-05-15 20:22:00,
2013-05-15 13:32:00,68.0,55.0,30.03,SSW,208,9.0,-999.0,64,-99.99,,,-99.99,,2013-05-15 20:32:00,
2013-05-15 13:33:00,68.0,54.0,30.03,West,278,10.0,-999.0,61,-99.99,,,-99.99,,2013-05-15 20:33:00,
2013-05-15 13:47:00,68.0,55.0,30.03,SSW,208,9.0,-999.0,64,-99.99,,,-99.99,,2013-05-15 20:47:00,
2013-05-15 13:54:00,68.0,54.0,30.03,West,278,10.0,-999.0,61,-99.99,,,-99.99,,2013-05-15 20:54:00,
2013-05-15 14:03:00,68.0,54.0,30.03,West,278,10.0,-999.0,61,-99.99,,,-99.99,,2013-05-15 21:03:00,
2013-05-15 14:15:00,68.0,54.0,30.03,West,278,10.0,-999.0,61,-99.99,,,-99.99,,2013-05-15 21:15:00,
2013-05-15 14:24:00,68.0,54.0,30.03,West,278,10.0,-999.0,61,-99.99,,,-99.99,,2013-05-15 21:24:00,
2013-05-15 15:30:00,68.0,54.0,30.01,SW,222,8.0,-999.0,61,-99.99,,,-99.99,,2013-05-15 22:30:00,
2013-05-15 15:40:00,68.0,54.0,30.01,SW,222,8.0,-999.0,61,-99.99,,,-99.99,,2013-05-15 22:40:00,
2013-05-15 15:56:00,68.0,53.0,30.01,SSW,209,7.0,-999.0,59,-99.99,,,-99.99,,2013-05-15 22:56:00,
2013-05-15 16:13:00,68.0,53.0,30.01,SSW,209,7.0,-999.0,59,-99.99,,,-99.99,,2013-05-15 23:13:00,
2013-05-15 16:22:00,68.0,53.0,30.00,WSW,245,6.0,-999.0,59,-99.99,,,-99.99,,2013-05-15 23:22:00,
2013-05-15 16:32:00,68.0,53.0,30.00,WSW,245,6.0,-999.0,59,-99.99,,,-99.99,,2013-05-15 23:32:00,
2013-05-15 16:50:00,68.0,53.0,30.00,WSW,245,6.0,-999.0,59,-99.99,,,-99.99,,2013-05-15 23:50:00,
2013-05-15 17:01:00,68.0,54.0,29.99,WSW,250,6.0,-999.0,60,-99.99,,,-99.99,,2013-05-16 00:01:00,
2013-05-15 17:15:00,68.0,54.0,29.99,WSW,250,6.0,-999.0,60,-99.99,,,-99.99,,2013-05-16 00:15:00,
2013-05-15 17:23:00,68.0,54.0,29.99,WSW,250,6.0,-999.0,60,-99.99,,,-99.99,,2013-05-16 00:23:00,
2013-05-15 18:19:00,66.0,51.0,29.97,SW,225,7.0,-999.0,58,-99.99,,,-99.99,,2013-05-16 01:19:00,
2013-05-15 18:30:00,66.0,51.0,29.97,SW,225,7.0,-999.0,58,-99.99,,,-99.99,,2013-05-16 01:30:00,
2013-05-15 18:39:00,66.0,51.0,29.97,SW,225,7.0,-999.0,58,-99.99,,,-99.99,,2013-05-16 01:39:00,
2013-05-15 18:49:00,66.0,51.0,29.97,SW,225,7.0,-999.0,58,-99.99,,,-99.99,,2013-05-16 01:49:00,
2013-05-15 19:02:00,66.0,51.0,29.97,SW,225,7.0,-999.0,58,-99.99,,,-99.99,,2013-05-16 02:02:00,
2013-05-15 20:56:00,60.0,52.0,29.96,SSW,205,2.0,-999.0,75,-99.99,,,-99.99,,2013-05-16 03:56:00,
2013-05-15 21:02:00,60.0,52.0,29.96,SSW,205,2.0,-999.0,75,-99.99,,,-99.99,,2013-05-16 04:02:00,
2013-05-15 21:12:00,60.0,52.0,29.96,SSW,205,2.0,-999.0,75,-99.99,,,-99.99,,2013-05-16 04:12:00,
2013-05-15 21:22:00,59.0,51.0,29.96,SSW,205,1.0,-999.0,76,-99.99,,,-99.99,,2013-05-16 04:22:00,
2013-05-15 21:32:00,59.0,51.0,29.96,SSW,205,1.0,-999.0,76,-99.99,,,-99.99,,2013-05-16 04:32:00,
2013-05-15 21:42:00,59.0,51.0,29.96,SSW,205,1.0,-999.0,76,-99.99,,,-99.99,,2013-05-16 04:42:00,
2013-05-15 21:53:00,59.0,52.0,29.97,SSW,205,3.0,-999.0,78,-99.99,,,-99.99,,2013-05-16 04:53:00,
2013-05-15 22:02:00,59.0,52.0,29.97,SSW,205,3.0,-999.0,78,-99.99,,,-99.99,,2013-05-16 05:02:00,
2013-05-15 22:12:00,59.0,52.0,29.97,SSW,205,3.0,-999.0,78,-99.99,,,-99.99,,2013-05-16 05:12:00,
2013-05-15 22:22:00,59.0,52.0,29.97,SSW,205,3.0,-999.0,78,-99.99,,,-99.99,,2013-05-16 05:22:00,
2013-05-15 22:33:00,58.0,52.0,29.97,SSW,205,0.0,-999.0,80,-99.99,,,-99.99,,2013-05-16 05:33:00,
2013-05-15 22:52:00,58.0,52.0,29.97,SSW,205,0.0,-999.0,80,-99.99,,,-99.99,,2013-05-16 05:52:00,
2013-05-15 23:01:00,58.0,52.0,29.97,SSW,205,0.0,-999.0,80,-99.99,,,-99.99,,2013-05-16 06:01:00,
2013-05-15 23:12:00,58.0,52.0,29.97,SSW,205,0.0,-999.0,80,-99.99,,,-99.99,,2013-05-16 06:12:00,
2013-05-15 23:22:00,58.0,52.0,29.97,SSW,205,0.0,-999.0,80,-99.99,,,-99.99,,2013-05-16 06:22:00,
2013-05-15 23:53:00,58.0,53.0,29.97,SSW,205,1.0,-999.0,82,-99.99,,,-99.99,,2013-05-16 06:53:00,